吉林一号09星 (JILIN-1 09)

导读

JILIN-01-09(吉林一号01-09星)是中国自主研制的“吉林一号”商业遥感卫星星座成员,由长光卫星技术有限公司运营。该卫星于北京时间2019年1月21日发射升空,目前运行在近地轨道,轨道周期约95分钟,近地点约509公里、远地点约515公里,轨道倾角约97.48度,处于在轨工作状态。作为“吉林一号”低轨遥感星座的组成部分,它和星座其他卫星协同,可提供高分辨率对地观测数据,服务于国土资源监测、农业估产、灾害应急、智慧城市建设等多个领域,支撑中国商业航天遥感产业的发展。

基本信息
目录编号:
43943
目录名称:
JILIN-01-09
国际标识:
2019-005B
轨道中心:
EARTH
卫星名称:
吉林一号09星
卫星全名:
吉林一号09星 (JILIN-1 09)
卫星状态:
在轨 (已飞行2744 天)
发射日期:
2019-01-21 UTC
国别 :
中国 (CN)
星等 :
--
轨道信息
数据来源 国际轨道数据 AOE轨道数据
星历时间 2026-07-27T21:58:50+0800
8小时前
查看轨道信息
2026-07-22T02:00:00+0800
6天前
查看轨道信息
半长轴 6881.466km 6881.631km
偏心率 0.0001156 0.0001598
轨道倾角 97.475° 97.474°
近地点辐角 0.156° 19.662°
升交点赤经 303.209° 297.425°
平近点角 359.968° 108.380°
近地点 502.533km 502.394km
远地点 504.125km 504.594km
周期 94.685分钟 94.688分钟
每日圈数 15.208324 15.207778
详细信息
平衡模式:
三轴稳定
覆盖范围:
全球
运营商:
长光卫星技术股份有限公司
运营商所在国:
中国
制造商(研发单位):
长光卫星技术股份有限公司
制造商所在国:
中国
使用方式:
暂无
卫星简介
“吉林一号”卫星星座(JiLin-1)是长光卫星技术有限公司在建的核心工程,是我国目前最大的商业遥感卫星星座,具备了较强的服务能力。该卫星仍在工作。
2D轨道图
3D轨道图
轨道高度分析图
轨道倾角分析图
轨道综合分析图
查看轨道综合分析图